| time (UTC) | temp F | wind direction | speed MPH | gust MPH | rain 1hr in | rain 24hr in | rain mn in | humidity % | barometer mb |
| 20260508184705 | 61 | 217 | 5.0 | 13.0 | 0.00 | 0.00 | 0.00 | 77 | 1019.5 |
| 20260508184204 | 60 | 266 | 5.0 | 13.0 | 0.00 | 0.00 | 0.00 | 77 | 1019.5 |
| 20260508183704 | 60 | 207 | 5.0 | 12.0 | 0.00 | 0.00 | 0.00 | 76 | 1019.6 |
| 20260508183205 | 60 | 283 | 6.0 | 12.0 | 0.00 | 0.00 | 0.00 | 76 | 1019.5 |
| 20260508182704 | 60 | 253 | 5.0 | 12.0 | 0.00 | 0.00 | 0.00 | 76 | 1019.7 |
| 20260508182206 | 61 | 235 | 4.0 | 10.0 | 0.00 | 0.00 | 0.00 | 77 | 1019.7 |
| 20260508181704 | 60 | 236 | 5.0 | 9.0 | 0.00 | 0.00 | 0.00 | 77 | 1019.8 |
| 20260508181205 | 60 | 248 | 5.0 | 10.0 | 0.00 | 0.00 | 0.00 | 78 | 1019.7 |
| 20260508180205 | 59 | 194 | 5.0 | 10.0 | 0.00 | 0.00 | 0.00 | 79 | 1019.9 |
| 20260508175706 | 59 | 224 | 5.0 | 9.0 | 0.00 | 0.00 | 0.00 | 79 | 1019.9 |
| 20260508175204 | 59 | 188 | 4.0 | 9.0 | 0.00 | 0.00 | 0.00 | 80 | 1019.7 |
| 20260508174706 | 59 | 217 | 5.0 | 9.0 | 0.00 | 0.00 | 0.00 | 80 | 1019.8 |
| 20260508174204 | 58 | 202 | 5.0 | 9.0 | 0.00 | 0.00 | 0.00 | 80 | 1019.9 |
| 20260508173704 | 58 | 211 | 4.0 | 8.0 | 0.00 | 0.00 | 0.00 | 79 | 1019.9 |
| 20260508173204 | 59 | 180 | 4.0 | 8.0 | 0.00 | 0.00 | 0.00 | 79 | 1019.9 |
| 20260508172704 | 59 | 217 | 4.0 | 8.0 | 0.00 | 0.00 | 0.00 | 78 | 1019.8 |
| 20260508172205 | 60 | 192 | 3.0 | 7.0 | 0.00 | 0.00 | 0.00 | 78 | 1019.7 |
| 20260508171704 | 60 | 221 | 3.0 | 7.0 | 0.00 | 0.00 | 0.00 | 79 | 1019.7 |
| 20260508171204 | 60 | 165 | 3.0 | 7.0 | 0.00 | 0.00 | 0.00 | 79 | 1019.7 |
| 20260508170704 | 60 | 178 | 2.0 | 5.0 | 0.00 | 0.00 | 0.00 | 81 | 1019.6 |
| 20260508170204 | 60 | 130 | 2.0 | 7.0 | 0.00 | 0.00 | 0.00 | 82 | 1019.7 |
| 20260508165704 | 59 | 101 | 2.0 | 7.0 | 0.00 | 0.00 | 0.00 | 84 | 1019.7 |
| 20260508165204 | 58 | 54 | 2.0 | 7.0 | 0.00 | 0.00 | 0.00 | 85 | 1019.7 |
| 20260508164704 | 57 | 50 | 2.0 | 7.0 | 0.00 | 0.00 | 0.00 | 84 | 1019.7 |
| 20260508164206 | 57 | 99 | 2.0 | 5.0 | 0.00 | 0.00 | 0.00 | 85 | 1019.7 |
| 20260508163704 | 57 | 45 | 1.0 | 3.0 | 0.00 | 0.00 | 0.00 | 85 | 1019.8 |
| 20260508163205 | 56 | 106 | 1.0 | 3.0 | 0.00 | 0.00 | 0.00 | 86 | 1019.8 |
| 20260508162704 | 56 | 76 | 0.0 | 3.0 | 0.00 | 0.00 | 0.00 | 86 | 1019.7 |
| 20260508162204 | 56 | 355 | 1.0 | 3.0 | 0.00 | 0.00 | 0.00 | 86 | 1019.8 |
| 20260508161705 | 56 | 5 | 0.0 | 2.0 | 0.00 | 0.00 | 0.00 | 86 | 1019.8 |
| 20260508161204 | 55 | 12 | 0.0 | 3.0 | 0.00 | 0.00 | 0.00 | 87 | 1020.0 |
| 20260508160704 | 55 | 35 | 0.0 | 3.0 | 0.00 | 0.00 | 0.00 | 87 | 1020.0 |
| 20260508160205 | 55 | 35 | 1.0 | 3.0 | 0.00 | 0.00 | 0.00 | 87 | 1020.0 |
| 20260508155704 | 55 | 44 | 1.0 | 3.0 | 0.00 | 0.00 | 0.00 | 87 | 1019.8 |
| 20260508155204 | 55 | 338 | 0.0 | 4.0 | 0.00 | 0.00 | 0.00 | 87 | 1019.8 |
| 20260508154705 | 55 | 25 | 0.0 | 4.0 | 0.00 | 0.00 | 0.00 | 87 | 1019.8 |
| 20260508154204 | 55 | 81 | 1.0 | 3.0 | 0.00 | 0.00 | 0.00 | 87 | 1019.8 |
| 20260508153205 | 54 | 328 | 1.0 | 4.0 | 0.00 | 0.00 | 0.00 | 87 | 1019.7 |
| 20260508152204 | 54 | 331 | 2.0 | 5.0 | 0.00 | 0.00 | 0.00 | 87 | 1019.8 |
| 20260508151705 | 53 | 297 | 2.0 | 6.0 | 0.00 | 0.00 | 0.00 | 87 | 1020.0 |
| 20260508151204 | 53 | 336 | 3.0 | 6.0 | 0.00 | 0.00 | 0.00 | 87 | 1019.8 |
| 20260508150705 | 53 | 337 | 3.0 | 8.0 | 0.00 | 0.00 | 0.00 | 87 | 1019.8 |
| 20260508150205 | 53 | 317 | 4.0 | 8.0 | 0.00 | 0.00 | 0.00 | 87 | 1019.9 |
| 20260508145704 | 53 | 290 | 4.0 | 8.0 | 0.00 | 0.00 | 0.00 | 87 | 1019.9 |
| 20260508145204 | 53 | 328 | 3.0 | 5.0 | 0.00 | 0.00 | 0.00 | 88 | 1019.9 |
| 20260508144705 | 53 | 315 | 2.0 | 5.0 | 0.00 | 0.00 | 0.00 | 88 | 1019.9 |
| 20260508144205 | 53 | 298 | 2.0 | 5.0 | 0.00 | 0.00 | 0.00 | 88 | 1019.7 |
| 20260508143706 | 53 | 306 | 2.0 | 4.0 | 0.00 | 0.00 | 0.00 | 88 | 1019.7 |
| 20260508143205 | 53 | 306 | 2.0 | 5.0 | 0.00 | 0.00 | 0.00 | 88 | 1019.6 |
| 20260508142704 | 53 | 302 | 2.0 | 5.0 | 0.00 | 0.00 | 0.00 | 88 | 1019.5 |
| 20260508141705 | 52 | 294 | 2.0 | 6.0 | 0.00 | 0.00 | 0.00 | 88 | 1019.5 |
| 20260508140205 | 53 | 279 | 3.0 | 5.0 | 0.00 | 0.00 | 0.00 | 89 | 1019.4 |
| 20260508135704 | 53 | 318 | 2.0 | 4.0 | 0.00 | 0.00 | 0.00 | 89 | 1019.4 |
| 20260508135205 | 53 | 294 | 2.0 | 5.0 | 0.00 | 0.00 | 0.00 | 89 | 1019.3 |
| 20260508134705 | 53 | 291 | 2.0 | 5.0 | 0.00 | 0.00 | 0.00 | 89 | 1019.1 |
| 20260508134205 | 53 | 284 | 3.0 | 5.0 | 0.00 | 0.00 | 0.00 | 89 | 1019.2 |
| 20260508133705 | 53 | 279 | 2.0 | 5.0 | 0.00 | 0.00 | 0.00 | 89 | 1019.1 |
| 20260508133205 | 54 | 295 | 1.0 | 4.0 | 0.00 | 0.00 | 0.00 | 90 | 1019.0 |
| 20260508132705 | 54 | 24 | 0.0 | 2.0 | 0.00 | 0.00 | 0.00 | 90 | 1019.0 |
| 20260508132204 | 54 | 327 | 0.0 | 2.0 | 0.00 | 0.00 | 0.00 | 90 | 1019.0 |
| 20260508131705 | 54 | 317 | 0.0 | 2.0 | 0.00 | 0.00 | 0.00 | 90 | 1018.9 |
| 20260508131206 | 53 | 53 | 1.0 | 4.0 | 0.00 | 0.00 | 0.00 | 90 | 1018.9 |
| 20260508130704 | 53 | 331 | 1.0 | 6.0 | 0.00 | 0.00 | 0.00 | 90 | 1018.9 |
| 20260508130204 | 53 | 325 | 1.0 | 6.0 | 0.00 | 0.00 | 0.00 | 90 | 1018.8 |
| 20260508125705 | 53 | 329 | 2.0 | 6.0 | 0.00 | 0.00 | 0.00 | 90 | 1019.0 |
| 20260508124705 | 53 | 321 | 0.0 | 5.0 | 0.00 | 0.00 | 0.00 | 90 | 1019.0 |
| 20260508124205 | 53 | 294 | 0.0 | 5.0 | 0.00 | 0.00 | 0.00 | 90 | 1019.0 |
| 20260508123705 | 53 | 294 | 1.0 | 5.0 | 0.00 | 0.00 | 0.00 | 90 | 1019.0 |
| 20260508123206 | 53 | 294 | 2.0 | 4.0 | 0.00 | 0.00 | 0.00 | 90 | 1019.0 |
| 20260508122705 | 53 | 300 | 2.0 | 5.0 | 0.00 | 0.00 | 0.00 | 90 | 1019.0 |
| 20260508122205 | 53 | 304 | 1.0 | 6.0 | 0.00 | 0.00 | 0.00 | 90 | 1019.0 |
| 20260508121704 | 53 | 299 | 2.0 | 6.0 | 0.00 | 0.00 | 0.00 | 90 | 1019.0 |
| 20260508121204 | 53 | 292 | 3.0 | 5.0 | 0.00 | 0.00 | 0.00 | 90 | 1019.0 |
| 20260508120205 | 53 | 274 | 1.0 | 4.0 | 0.00 | 0.00 | 0.00 | 90 | 1018.9 |
| 20260508115704 | 53 | 290 | 2.0 | 4.0 | 0.00 | 0.00 | 0.00 | 90 | 1018.9 |
| 20260508114705 | 53 | 338 | 1.0 | 4.0 | 0.00 | 0.00 | 0.00 | 90 | 1018.8 |
| 20260508114204 | 53 | 275 | 2.0 | 4.0 | 0.00 | 0.00 | 0.00 | 90 | 1018.7 |
| 20260508113705 | 53 | 320 | 2.0 | 4.0 | 0.00 | 0.00 | 0.00 | 90 | 1018.8 |
| 20260508113204 | 54 | 322 | 1.0 | 4.0 | 0.00 | 0.00 | 0.00 | 90 | 1018.9 |
| 20260508112705 | 54 | 342 | 1.0 | 5.0 | 0.00 | 0.00 | 0.00 | 90 | 1019.0 |
| 20260508111704 | 54 | 263 | 2.0 | 5.0 | 0.00 | 0.00 | 0.00 | 90 | 1018.8 |
| 20260508111205 | 54 | 288 | 2.0 | 5.0 | 0.00 | 0.00 | 0.00 | 90 | 1018.8 |
| 20260508110705 | 54 | 294 | 2.0 | 5.0 | 0.00 | 0.00 | 0.00 | 90 | 1018.8 |
| 20260508110204 | 54 | 285 | 2.0 | 4.0 | 0.00 | 0.00 | 0.00 | 90 | 1018.8 |
| 20260508105705 | 54 | 265 | 2.0 | 4.0 | 0.00 | 0.00 | 0.00 | 90 | 1018.8 |
| 20260508105205 | 54 | 264 | 2.0 | 4.0 | 0.00 | 0.00 | 0.00 | 90 | 1018.8 |
| 20260508104706 | 54 | 270 | 2.0 | 4.0 | 0.00 | 0.00 | 0.00 | 90 | 1018.8 |
| 20260508104204 | 54 | 279 | 2.0 | 4.0 | 0.00 | 0.00 | 0.00 | 90 | 1018.8 |
| 20260508103704 | 54 | 255 | 1.0 | 4.0 | 0.00 | 0.00 | 0.00 | 90 | 1018.9 |
| 20260508102204 | 55 | 255 | 2.0 | 4.0 | 0.00 | 0.00 | 0.00 | 90 | 1018.8 |
| 20260508101205 | 55 | 196 | 0.0 | 0.0 | 0.00 | 0.00 | 0.00 | 91 | 1018.8 |
| 20260508100705 | 55 | 190 | 0.0 | 0.0 | 0.00 | 0.00 | 0.00 | 91 | 1018.8 |
| 20260508100204 | 55 | 82 | 0.0 | 1.0 | 0.00 | 0.00 | 0.00 | 90 | 1018.8 |
| 20260508095704 | 55 | 82 | 0.0 | 2.0 | 0.00 | 0.00 | 0.00 | 90 | 1018.7 |
| 20260508095204 | 55 | 105 | 0.0 | 4.0 | 0.00 | 0.00 | 0.00 | 90 | 1018.7 |
| 20260508094704 | 55 | 105 | 1.0 | 4.0 | 0.00 | 0.00 | 0.00 | 90 | 1018.7 |
| 20260508094204 | 55 | 181 | 1.0 | 4.0 | 0.00 | 0.00 | 0.00 | 90 | 1018.6 |
| 20260508093705 | 55 | 128 | 0.0 | 3.0 | 0.00 | 0.00 | 0.00 | 90 | 1018.6 |
| 20260508093205 | 55 | 275 | 0.0 | 2.0 | 0.00 | 0.00 | 0.00 | 90 | 1018.6 |
| 20260508092705 | 55 | 275 | 0.0 | 2.0 | 0.00 | 0.00 | 0.00 | 90 | 1018.7 |
| 20260508092205 | 55 | 275 | 0.0 | 2.0 | 0.00 | 0.00 | 0.00 | 90 | 1018.6 |
| 20260508091705 | 55 | 275 | 0.0 | 0.0 | 0.00 | 0.00 | 0.00 | 90 | 1018.7 |
| 20260508091205 | 55 | 275 | 0.0 | 0.0 | 0.00 | 0.00 | 0.00 | 90 | 1018.6 |
| 20260508090704 | 55 | 275 | 0.0 | 0.0 | 0.00 | 0.00 | 0.00 | 90 | 1018.6 |
| 20260508090204 | 55 | 275 | 0.0 | 0.0 | 0.00 | 0.00 | 0.00 | 90 | 1018.6 |
| 20260508085204 | 55 | 275 | 0.0 | 0.0 | 0.00 | 0.00 | 0.00 | 90 | 1018.6 |
| 20260508084704 | 55 | 275 | 0.0 | 0.0 | 0.00 | 0.00 | 0.00 | 90 | 1018.6 |
| 20260508084205 | 55 | 275 | 0.0 | 2.0 | 0.00 | 0.00 | 0.00 | 90 | 1018.6 |
| 20260508083204 | 55 | 275 | 1.0 | 3.0 | 0.00 | 0.00 | 0.00 | 90 | 1018.6 |
| 20260508082205 | 55 | 285 | 0.0 | 2.0 | 0.00 | 0.00 | 0.00 | 90 | 1018.7 |
| 20260508081204 | 55 | 216 | 0.0 | 0.0 | 0.00 | 0.00 | 0.00 | 90 | 1018.7 |
| 20260508080705 | 55 | 216 | 0.0 | 0.0 | 0.00 | 0.00 | 0.00 | 90 | 1018.7 |
| 20260508080204 | 55 | 216 | 0.0 | 0.0 | 0.00 | 0.00 | 0.00 | 90 | 1018.7 |
| 20260508075705 | 55 | 216 | 0.0 | 0.0 | 0.00 | 0.00 | 0.00 | 90 | 1018.6 |
| 20260508075204 | 55 | 216 | 0.0 | 0.0 | 0.00 | 0.00 | 0.00 | 90 | 1018.6 |
| 20260508074705 | 55 | 216 | 0.0 | 0.0 | 0.00 | 0.00 | 0.00 | 90 | 1018.6 |
| 20260508074204 | 55 | 216 | 0.0 | 0.0 | 0.00 | 0.00 | 0.00 | 90 | 1018.7 |
| 20260508073205 | 55 | 216 | 0.0 | 0.0 | 0.00 | 0.00 | 0.00 | 90 | 1018.6 |
| 20260508072704 | 55 | 259 | 0.0 | 3.0 | 0.00 | 0.00 | 0.00 | 90 | 1018.6 |
| 20260508072204 | 55 | 309 | 0.0 | 6.0 | 0.00 | 0.00 | 0.00 | 90 | 1018.6 |
| 20260508071704 | 55 | 290 | 1.0 | 6.0 | 0.00 | 0.00 | 0.00 | 90 | 1018.7 |
| 20260508071204 | 55 | 285 | 2.0 | 6.0 | 0.00 | 0.00 | 0.00 | 90 | 1018.6 |
| 20260508070704 | 55 | 259 | 1.0 | 5.0 | 0.00 | 0.00 | 0.00 | 90 | 1018.6 |
| 20260508070204 | 55 | 259 | 2.0 | 5.0 | 0.00 | 0.00 | 0.00 | 89 | 1018.6 |
| 20260508065704 | 55 | 215 | 1.0 | 5.0 | 0.00 | 0.00 | 0.00 | 89 | 1018.6 |
| 20260508065205 | 55 | 258 | 2.0 | 5.0 | 0.00 | 0.00 | 0.00 | 89 | 1018.5 |
| 20260508064705 | 55 | 258 | 2.0 | 5.0 | 0.00 | 0.00 | 0.00 | 89 | 1018.5 |
| 20260508064204 | 55 | 262 | 1.0 | 5.0 | 0.00 | 0.00 | 0.00 | 89 | 1018.5 |
| 20260508063205 | 55 | 238 | 2.0 | 5.0 | 0.00 | 0.00 | 0.00 | 89 | 1018.6 |
| 20260508062705 | 55 | 260 | 1.0 | 5.0 | 0.00 | 0.00 | 0.00 | 89 | 1018.5 |
| 20260508062205 | 55 | 221 | 1.0 | 5.0 | 0.00 | 0.00 | 0.00 | 89 | 1018.6 |
| 20260508061704 | 55 | 276 | 0.0 | 3.0 | 0.00 | 0.00 | 0.00 | 89 | 1018.6 |
| 20260508061204 | 55 | 231 | 0.0 | 0.0 | 0.00 | 0.00 | 0.00 | 89 | 1018.6 |
| 20260508060705 | 55 | 231 | 0.0 | 0.0 | 0.00 | 0.00 | 0.00 | 88 | 1018.6 |
| 20260508060205 | 55 | 231 | 0.0 | 0.0 | 0.00 | 0.00 | 0.00 | 88 | 1018.6 |
| 20260508055705 | 55 | 231 | 0.0 | 0.0 | 0.00 | 0.00 | 0.00 | 88 | 1018.6 |
| 20260508054204 | 55 | 231 | 0.0 | 1.0 | 0.00 | 0.00 | 0.00 | 88 | 1018.5 |
| 20260508053705 | 55 | 115 | 0.0 | 1.0 | 0.00 | 0.00 | 0.00 | 88 | 1018.5 |
| 20260508053204 | 56 | 115 | 0.0 | 1.0 | 0.00 | 0.00 | 0.00 | 88 | 1018.5 |
| 20260508052704 | 56 | 115 | 0.0 | 3.0 | 0.00 | 0.00 | 0.00 | 88 | 1018.5 |
| 20260508052205 | 56 | 115 | 0.0 | 3.0 | 0.00 | 0.00 | 0.00 | 88 | 1018.5 |
| 20260508051703 | 56 | 115 | 0.0 | 3.0 | 0.00 | 0.00 | 0.00 | 88 | 1018.4 |
| 20260508051204 | 56 | 115 | 0.0 | 2.0 | 0.00 | 0.00 | 0.00 | 88 | 1018.3 |
| 20260508050704 | 56 | 115 | 0.0 | 2.0 | 0.00 | 0.00 | 0.00 | 88 | 1018.4 |
| 20260508050206 | 56 | 115 | 0.0 | 3.0 | 0.00 | 0.00 | 0.00 | 87 | 1018.4 |
| 20260508045704 | 56 | 115 | 0.0 | 5.0 | 0.00 | 0.00 | 0.00 | 87 | 1018.4 |
| 20260508045204 | 56 | 115 | 1.0 | 5.0 | 0.00 | 0.00 | 0.00 | 87 | 1018.4 |
| 20260508044704 | 56 | 115 | 1.0 | 5.0 | 0.00 | 0.00 | 0.00 | 87 | 1018.3 |
| 20260508044204 | 56 | 138 | 1.0 | 5.0 | 0.00 | 0.00 | 0.00 | 87 | 1018.3 |
| 20260508043204 | 56 | 107 | 1.0 | 5.0 | 0.00 | 0.00 | 0.00 | 87 | 1018.2 |
| 20260508042704 | 56 | 111 | 1.0 | 8.0 | 0.00 | 0.00 | 0.00 | 87 | 1018.1 |
| 20260508041705 | 56 | 115 | 3.0 | 7.0 | 0.00 | 0.00 | 0.00 | 86 | 1017.9 |
| 20260508041204 | 56 | 135 | 2.0 | 8.0 | 0.00 | 0.00 | 0.00 | 86 | 1017.9 |
| 20260508040704 | 56 | 121 | 2.0 | 8.0 | 0.00 | 0.00 | 0.00 | 86 | 1017.9 |
| 20260508040205 | 57 | 77 | 2.0 | 8.0 | 0.00 | 0.00 | 0.00 | 86 | 1017.8 |
| 20260508035705 | 57 | 134 | 3.0 | 8.0 | 0.00 | 0.00 | 0.00 | 85 | 1017.7 |
| 20260508035204 | 57 | 69 | 2.0 | 8.0 | 0.00 | 0.00 | 0.00 | 85 | 1017.8 |
| 20260508034204 | 57 | 119 | 4.0 | 11.0 | 0.00 | 0.00 | 0.00 | 85 | 1017.6 |
| 20260508033704 | 57 | 107 | 5.0 | 11.0 | 0.00 | 0.00 | 0.00 | 84 | 1017.7 |
| 20260508033205 | 58 | 138 | 6.0 | 12.0 | 0.00 | 0.00 | 0.00 | 84 | 1017.7 |
| 20260508032704 | 58 | 111 | 7.0 | 12.0 | 0.00 | 0.00 | 0.00 | 83 | 1017.6 |
| 20260508032204 | 58 | 111 | 6.0 | 12.0 | 0.00 | 0.00 | 0.00 | 82 | 1017.5 |
| 20260508031704 | 59 | 127 | 6.0 | 13.0 | 0.00 | 0.00 | 0.00 | 81 | 1017.3 |
| 20260508031204 | 59 | 129 | 7.0 | 13.0 | 0.00 | 0.00 | 0.00 | 80 | 1017.3 |
| 20260508030704 | 59 | 121 | 7.0 | 13.0 | 0.00 | 0.00 | 0.00 | 79 | 1017.2 |
| 20260508030204 | 60 | 117 | 6.0 | 13.0 | 0.00 | 0.00 | 0.00 | 78 | 1017.2 |
| 20260508025704 | 60 | 116 | 6.0 | 11.0 | 0.00 | 0.00 | 0.00 | 78 | 1017.1 |
| 20260508025204 | 61 | 134 | 4.0 | 11.0 | 0.00 | 0.00 | 0.00 | 77 | 1017.0 |
| 20260508024704 | 61 | 69 | 4.0 | 11.0 | 0.00 | 0.00 | 0.00 | 77 | 1017.0 |
| 20260508024205 | 62 | 115 | 4.0 | 11.0 | 0.00 | 0.00 | 0.00 | 77 | 1017.0 |
| 20260508023705 | 62 | 142 | 5.0 | 11.0 | 0.00 | 0.00 | 0.00 | 76 | 1016.9 |
| 20260508023204 | 62 | 111 | 5.0 | 11.0 | 0.00 | 0.00 | 0.00 | 76 | 1016.9 |
| 20260508022705 | 63 | 74 | 4.0 | 11.0 | 0.00 | 0.00 | 0.00 | 75 | 1016.8 |
| 20260508022205 | 64 | 100 | 5.0 | 14.0 | 0.00 | 0.00 | 0.00 | 75 | 1016.7 |
| 20260508021704 | 64 | 131 | 5.0 | 14.0 | 0.00 | 0.00 | 0.00 | 74 | 1016.8 |
| 20260508021204 | 64 | 127 | 6.0 | 14.0 | 0.00 | 0.00 | 0.00 | 74 | 1016.6 |
| 20260508020711 | 64 | 85 | 6.0 | 13.0 | 0.00 | 0.00 | 0.00 | 74 | 1016.8 |
| 20260508020204 | 64 | 128 | 6.0 | 13.0 | 0.00 | 0.00 | 0.00 | 75 | 1016.7 |
| 20260508015704 | 64 | 113 | 6.0 | 13.0 | 0.00 | 0.00 | 0.00 | 77 | 1016.6 |
| 20260508015204 | 64 | 134 | 7.0 | 12.0 | 0.00 | 0.00 | 0.00 | 77 | 1016.6 |
| 20260508014705 | 64 | 125 | 8.0 | 13.0 | 0.00 | 0.00 | 0.00 | 77 | 1016.5 |
| 20260508014204 | 64 | 107 | 7.0 | 13.0 | 0.00 | 0.00 | 0.00 | 76 | 1016.5 |
| 20260508013204 | 64 | 94 | 7.0 | 13.0 | 0.00 | 0.00 | 0.00 | 75 | 1016.5 |
| 20260508012705 | 65 | 105 | 6.0 | 13.0 | 0.00 | 0.00 | 0.00 | 75 | 1016.4 |
| 20260508012205 | 65 | 122 | 6.0 | 14.0 | 0.00 | 0.00 | 0.00 | 74 | 1016.4 |
| 20260508011704 | 65 | 115 | 5.0 | 14.0 | 0.00 | 0.00 | 0.00 | 74 | 1016.4 |
| 20260508010705 | 65 | 112 | 7.0 | 13.0 | 0.00 | 0.00 | 0.00 | 73 | 1016.4 |
| 20260508010205 | 65 | 100 | 7.0 | 13.0 | 0.00 | 0.00 | 0.00 | 73 | 1016.5 |
| 20260508005704 | 65 | 126 | 7.0 | 13.0 | 0.00 | 0.00 | 0.00 | 72 | 1016.6 |
| 20260508005204 | 66 | 109 | 6.0 | 13.0 | 0.00 | 0.00 | 0.00 | 71 | 1016.6 |
| 20260508004704 | 66 | 109 | 6.0 | 13.0 | 0.00 | 0.00 | 0.00 | 70 | 1016.6 |
| 20260508004205 | 66 | 89 | 5.0 | 12.0 | 0.00 | 0.00 | 0.00 | 68 | 1016.7 |
| 20260508003704 | 67 | 109 | 4.0 | 12.0 | 0.00 | 0.00 | 0.00 | 68 | 1016.6 |
| 20260508003204 | 66 | 118 | 5.0 | 12.0 | 0.00 | 0.00 | 0.00 | 69 | 1016.5 |
| 20260508002204 | 66 | 107 | 6.0 | 12.0 | 0.00 | 0.00 | 0.00 | 68 | 1016.7 |
| 20260508001704 | 67 | 48 | 5.0 | 12.0 | 0.00 | 0.00 | 0.00 | 67 | 1016.6 |
| 20260508000205 | 67 | 94 | 4.0 | 11.0 | 0.00 | 0.00 | 0.00 | 68 | 1016.5 |
| 20260507235706 | 67 | 70 | 5.0 | 12.0 | 0.00 | 0.00 | 0.00 | 68 | 1016.6 |
| 20260507235204 | 67 | 126 | 7.0 | 12.0 | 0.00 | 0.00 | 0.00 | 68 | 1016.6 |
| 20260507234704 | 68 | 79 | 6.0 | 12.0 | 0.00 | 0.00 | 0.00 | 66 | 1016.6 |
| 20260507234205 | 69 | 37 | 5.0 | 9.0 | 0.00 | 0.00 | 0.00 | 65 | 1016.6 |
| 20260507233204 | 69 | 49 | 4.0 | 9.0 | 0.00 | 0.00 | 0.00 | 65 | 1016.6 |
| 20260507232704 | 69 | 98 | 4.0 | 9.0 | 0.00 | 0.00 | 0.00 | 67 | 1016.7 |
| 20260507232205 | 69 | 74 | 4.0 | 9.0 | 0.00 | 0.00 | 0.00 | 67 | 1016.8 |
| 20260507231704 | 69 | 42 | 4.0 | 9.0 | 0.00 | 0.00 | 0.00 | 66 | 1016.9 |
| 20260507231205 | 69 | 71 | 4.0 | 8.0 | 0.00 | 0.00 | 0.00 | 66 | 1016.8 |
| 20260507230705 | 70 | 115 | 4.0 | 8.0 | 0.00 | 0.00 | 0.00 | 65 | 1016.8 |
| 20260507230205 | 71 | 86 | 4.0 | 8.0 | 0.00 | 0.00 | 0.00 | 63 | 1016.8 |
| 20260507225704 | 72 | 128 | 4.0 | 8.0 | 0.00 | 0.00 | 0.00 | 63 | 1017.0 |
| 20260507225204 | 72 | 92 | 4.0 | 9.0 | 0.00 | 0.00 | 0.00 | 63 | 1016.9 |
| 20260507224204 | 74 | 51 | 3.0 | 7.0 | 0.00 | 0.00 | 0.00 | 59 | 1017.0 |
| 20260507223704 | 74 | 99 | 3.0 | 7.0 | 0.00 | 0.00 | 0.00 | 58 | 1017.0 |
| 20260507223204 | 74 | 216 | 3.0 | 7.0 | 0.00 | 0.00 | 0.00 | 60 | 1017.0 |
| 20260507222704 | 74 | 167 | 4.0 | 8.0 | 0.00 | 0.00 | 0.00 | 60 | 1017.2 |
| 20260507222205 | 74 | 188 | 3.0 | 8.0 | 0.00 | 0.00 | 0.00 | 59 | 1017.2 |
| 20260507221204 | 74 | 130 | 3.0 | 7.0 | 0.00 | 0.00 | 0.00 | 59 | 1017.2 |
| 20260507220204 | 74 | 205 | 3.0 | 6.0 | 0.00 | 0.00 | 0.00 | 60 | 1017.3 |
| 20260507215704 | 74 | 193 | 3.0 | 6.0 | 0.00 | 0.00 | 0.00 | 61 | 1017.3 |
| 20260507213204 | 72 | 125 | 3.0 | 9.0 | 0.00 | 0.00 | 0.00 | 65 | 1017.5 |
| 20260507212704 | 71 | 105 | 4.0 | 9.0 | 0.00 | 0.00 | 0.00 | 67 | 1017.5 |
| 20260507211705 | 71 | 113 | 4.0 | 9.0 | 0.00 | 0.00 | 0.00 | 67 | 1017.7 |
| 20260507211205 | 70 | 75 | 4.0 | 9.0 | 0.00 | 0.00 | 0.00 | 69 | 1017.7 |
| 20260507210704 | 70 | 117 | 4.0 | 8.0 | 0.00 | 0.00 | 0.00 | 70 | 1017.8 |
| 20260507210204 | 69 | 130 | 4.0 | 8.0 | 0.00 | 0.00 | 0.00 | 70 | 1017.8 |
| 20260507205204 | 68 | 132 | 4.0 | 8.0 | 0.00 | 0.00 | 0.00 | 71 | 1017.8 |
| 20260507204704 | 68 | 145 | 4.0 | 9.0 | 0.00 | 0.00 | 0.00 | 72 | 1018.0 |
| 20260507204204 | 68 | 134 | 5.0 | 9.0 | 0.00 | 0.00 | 0.00 | 72 | 1018.0 |
| 20260507203705 | 68 | 117 | 5.0 | 9.0 | 0.00 | 0.00 | 0.00 | 72 | 1017.9 |
| 20260507203205 | 68 | 114 | 5.0 | 9.0 | 0.00 | 0.00 | 0.00 | 71 | 1018.0 |
| 20260507202704 | 68 | 140 | 5.0 | 9.0 | 0.00 | 0.00 | 0.00 | 72 | 1018.2 |
| 20260507200205 | 67 | 138 | 3.0 | 8.0 | 0.00 | 0.00 | 0.00 | 73 | 1018.4 |
| 20260507195704 | 67 | 31 | 3.0 | 8.0 | 0.00 | 0.00 | 0.00 | 72 | 1018.3 |
| 20260507195204 | 67 | 121 | 3.0 | 8.0 | 0.00 | 0.00 | 0.00 | 73 | 1018.4 |
| 20260507194704 | 67 | 128 | 2.0 | 8.0 | 0.00 | 0.00 | 0.00 | 74 | 1018.4 |
| 20260507194204 | 67 | 148 | 2.0 | 6.0 | 0.00 | 0.00 | 0.00 | 75 | 1018.6 |
| 20260507193205 | 65 | 19 | 2.0 | 6.0 | 0.00 | 0.00 | 0.00 | 80 | 1018.7 |
| 20260507192704 | 63 | 240 | 3.0 | 7.0 | 0.00 | 0.00 | 0.00 | 81 | 1018.8 |
| 20260507191205 | 61 | 173 | 4.0 | 8.0 | 0.00 | 0.00 | 0.00 | 83 | 1019.1 |
| 20260507190704 | 60 | 217 | 4.0 | 8.0 | 0.00 | 0.00 | 0.00 | 84 | 1019.1 |
| 20260507190205 | 60 | 186 | 5.0 | 8.0 | 0.00 | 0.00 | 0.00 | 85 | 1019.1 |
| 20260507185705 | 60 | 194 | 5.0 | 8.0 | 0.00 | 0.00 | 0.00 | 85 | 1019.2 |
| 20260507185204 | 60 | 188 | 4.0 | 9.0 | 0.00 | 0.00 | 0.00 | 86 | 1019.3 |